Preview of NWS' New Version of Forecast
This preview is not operational and should not be used for support decisions.

Regional Weather Roundup (RWR)

Issued by National Weather Service (NWS)

                            
000
ASCA42 TJSJ 220610
RWRPR 
PUERTO RICO/U.S. VIRGIN ISLANDS HOURLY WEATHER ROUNDUP
NATIONAL WEATHER SERVICE SAN JUAN PR
200 AM AST WED MAY 22 2019

PRZ001>002-007>008-010-220700-
PUERTO RICO
  
CITY           SKY/WX    TMP DP  RH WIND       PRES   REMARKS
SAN JUAN LMM   PTCLDY    81  72  74 CALM      29.98S                  
CEIBA          PTCLDY    81  73  78 SE7       29.99F                  
$$

VIZ001>002-220700-
U.S. VIRGIN ISLANDS
  
CITY           SKY/WX    TMP DP  RH WIND       PRES   REMARKS
CHARLOTTE AMA  CLEAR     81  72  74 E9        29.97F                  
CHRISTIANSTED  PTCLDY    79  72  78 NE7       29.98F                  
$$

HOURLY WEATHER ROUNDUP FOR THE NEWS MEDIA
  
CITY           SKY/WX    TMP DP  RH WIND       PRES   REMARKS
ORLANDO        FAIR      76  69  79 S8        30.03S                  
NEW YORK       MOCLDY    59  38  45 N14       30.13R                  
NEWARK         FAIR      59  35  40 NW13      30.13R                  
CHICAGO        HVY RAIN  50  48  93 CALM      29.94R FOG              
HARTFORD       FAIR      54  37  52 NW9       30.00R                  
BOSTON         FAIR      59  35  40 NW18G26   30.00R                  
DALLAS         PTCLDY    71  61  70 S10       29.70R                  
PHILADELPHIA   FAIR      59  37  44 N7        30.16R                  
LOS ANGELES    PTCLDY    60  50  69 CALM      29.77S                  
WASHINGTON DC  FAIR      51  46  83 CALM      30.17R